Home   Weather   Sarnen   Past weeks

Flag for Switzerland Past Weather in Sarnen, Obwalden, Switzerland — Yesterday and Last 2 Weeks

Now
53 °F

Cool.


Feels Like: 53 °F
Forecast: 44 / 63 °F
Wind: 2 mph from Northeast

Location: Giswil

Current Time: Apr 24, 2017 at 1:49:05 pm

Latest Report: Apr 24, 2017 at 12:00 pm


Visibility: N/A

Pressure: 30.04 "Hg

Humidity: 58%

Dew Point: 38 °F

Location of SarnenLocation

Past Weather in Sarnen — Graph

°F

Sarnen Temperature Yesterday

Maximum temperature yesterday: 58 °F (at 5:00 pm)
Minimum temperature yesterday: 38 °F (at 11:00 pm)
Average temperature yesterday: 50 °F

High & Low Weather Summary for the Past Weeks

 TemperatureHumidityPressure
High74 °F (Apr 10, 4:00 pm)100% (Apr 10, 1:00 am)30.59 "Hg (Apr 10, 1:00 am)
Low23 °F (Apr 21, 6:00 am)25% (Apr 21, 5:00 pm)29.89 "Hg (Apr 13, 5:00 pm)
Average47 °F75%30.21 "Hg
* Reported Apr 9 12:00 pm — Apr 24 12:00 pm, Sarnen, Weather by CustomWeather, © 2017

Note: Actual official high and low records may vary slightly from our data, if they occured in-between our weather recording intervals... More about our weather records

Advertising

Sarnen Weather History for the Previous 24 Hours

Scroll right to see more
 ConditionsComfort  
Time TempWeatherWind HumidityBarometerVisibility
12:00 pm
Mon, Apr 24
53 °FCool.2 mph58%30.04 "HgN/A
11:00 am50 °FCool.2 mph60%30.08 "HgN/A
10:00 am46 °FCool.2 mph68%30.10 "HgN/A
9:00 am43 °FQuite cool.1 mph89%30.13 "HgN/A
8:00 am38 °FChilly.No wind98%30.15 "HgN/A
7:00 am31 °FChilly.2 mph99%30.17 "HgN/A
6:00 am31 °FChilly.2 mph99%30.17 "HgN/A
5:00 am31 °FChilly.1 mph99%30.18 "HgN/A
4:00 am32 °FChilly.2 mph99%30.18 "HgN/A
3:00 am33 °FChilly.1 mph99%30.19 "HgN/A
2:00 am34 °FChilly.2 mph100%30.20 "HgN/A
1:00 am36 °FChilly.1 mph98%30.21 "HgN/A
12:00 am38 °FChilly.2 mph91%30.20 "HgN/A
11:00 pm
Sun, Apr 23
38 °FChilly.2 mph93%30.21 "HgN/A
10:00 pm45 °FCool.2 mph72%30.19 "HgN/A
9:00 pm53 °FCool.1 mph57%30.15 "HgN/A
8:00 pm55 °FRefreshingly cool.3 mph52%30.13 "HgN/A
7:00 pm56 °FRefreshingly cool.5 mph49%30.13 "HgN/A
6:00 pm58 °FRefreshingly cool.5 mph49%30.12 "HgN/A
5:00 pm58 °FRefreshingly cool.5 mph48%30.12 "HgN/A
4:00 pm58 °FRefreshingly cool.5 mph48%30.13 "HgN/A
3:00 pm56 °FRefreshingly cool.5 mph50%30.16 "HgN/A
2:00 pm53 °FCool.2 mph49%30.19 "HgN/A
1:00 pm50 °FCool.2 mph53%30.22 "HgN/A
Weather by CustomWeather, © 2017

See weather overviewHow to use our weather pages